Location: Waco, TX
(31.5481°N, 97.1672°W)
Time: 16:40:14
(UTC-05:00)

Amateur Radio Satellites - All Passes

Search period start: 20 October 2017 16:10
Search period end: 21 October 2017 16:10
Location: Waco, TX, 31.5481°N, 97.1672°W

Satellite Date Start Highest point End Downlink Frequencies (MHz)
Time Altitude Azimuth
ITUPSAT 1 20 Oct 16:13:07 16:17:22 31° 98° (E) 16:21:35 437.325
DX 1 20 Oct 16:17:49 16:20:02 14° 292° (WNW) 16:22:13 434.975-435.025
BEESAT 20 Oct 16:28:14 16:32:52 48° 100° (E) 16:37:26 436.000
SO-50 20 Oct 16:38:12 16:42:41 48° 59° (ENE) 16:47:13 436.795
UKube-1 20 Oct 16:42:13 16:43:40 11° 293° (WNW) 16:45:07 .
AO-7 20 Oct 16:56:03 17:03:58 49° 258° (WSW) 17:11:56 .
MOZHAYETS 4 20 Oct 17:19:42 17:23:51 34° 287° (WNW) 17:27:57
ITAMSAT 1 20 Oct 17:23:28 17:27:38 24° 263° (W) 17:31:50 435.822/435.867
nSIGHT-1 20 Oct 17:28:54 17:31:44 28° 40° (NE) 17:34:33 .
CUBESAT XI-V 20 Oct 17:30:57 17:35:29 57° 101° (E) 17:40:00 437.345
ITUPSAT 1 20 Oct 17:51:23 17:54:56 21° 291° (WNW) 17:58:27 437.325
CUTE-I 20 Oct 17:55:32 17:58:44 16° 66° (ENE) 18:01:57 437.470
ISS 20 Oct 18:01:58 18:05:12 58° 44° (NE) 18:08:26 437.550
DOVE 4 20 Oct 18:04:43 18:08:51 81° 259° (W) 18:13:08 437.250
BEESAT 20 Oct 18:07:44 18:10:09 14° 294° (WNW) 18:12:33 436.000
XW-2C 20 Oct 18:10:01 18:12:50 20° 72° (ENE) 18:15:38 145.795 - 145.815
SO-50 20 Oct 18:20:22 18:22:43 14° 252° (WSW) 18:25:04 436.795
HO-68 20 Oct 18:33:06 18:38:05 21° 62° (ENE) 18:43:03 435.675
PCSat 20 Oct 18:37:14 18:42:39 67° 64° (ENE) 18:48:00 145.827
KKS-1 20 Oct 18:44:43 18:49:12 77° 284° (WNW) 18:53:40 437.445
KAITUO 1B 20 Oct 18:51:32 18:55:09 51° 76° (ENE) 18:58:47 145.475/437.950
XW-2F 20 Oct 18:53:37 18:57:23 76° 77° (ENE) 19:01:10 145.980 - 146.000
LilacSat-2 20 Oct 18:59:19 19:03:09 74° 259° (WSW) 19:06:59 437.200
CUTE 1.7 + AOD 2 20 Oct 19:04:13 19:07:12 19° 71° (ENE) 19:10:11 437.475
NUDT-PHONESAT 20 Oct 19:05:10 19:08:53 80° 77° (ENE) 19:12:36 437.300
nSIGHT-1 20 Oct 19:05:37 19:07:49 17° 233° (SW) 19:10:01 .
XW-2D 20 Oct 19:06:15 19:10:00 61° 259° (W) 19:13:46 145.860 - 145.880
CUBESAT XI-V 20 Oct 19:11:09 19:12:18 11° 294° (WNW) 19:13:26 437.345
SEEDS 20 Oct 19:11:52 19:13:53 13° 69° (ENE) 19:15:54 437.485
STARS 20 Oct 19:16:44 19:21:12 87° 280° (W) 19:25:37 437.465
XW-2B 20 Oct 19:19:53 19:23:29 41° 261° (W) 19:27:06 145.730 - 145.750
CUTE-I 20 Oct 19:33:10 19:38:19 50° 260° (W) 19:43:28 437.470
YUBILEINY 20 Oct 19:43:47 19:45:50 11° 66° (ENE) 19:47:54 435.215
XW-2C 20 Oct 19:44:03 19:46:51 19° 264° (W) 19:49:40 145.795 - 145.815
AO-73 20 Oct 20:00:39 20:02:39 13° 68° (ENE) 20:04:39 145.935
CUBEBUG 2 20 Oct 20:05:45 20:10:18 62° 76° (ENE) 20:14:59 437.445
STRAND 1 20 Oct 20:05:59 20:10:09 24° 97° (E) 20:14:17 437.568
HO-68 20 Oct 20:18:05 20:25:08 63° 257° (WSW) 20:32:16 435.675
ZACube-1 20 Oct 20:20:57 20:24:41 25° 71° (ENE) 20:28:26 437.345
PCSat 20 Oct 20:23:33 20:25:21 12° 257° (WSW) 20:27:10 145.827
XW-2A 20 Oct 20:33:48 20:37:14 89° 262° (W) 20:40:39 145.665 - 145.685
CUTE 1.7 + AOD 2 20 Oct 20:39:15 20:42:48 26° 263° (W) 20:46:22 437.475
UWE-3 20 Oct 20:43:06 20:47:43 88° 250° (WSW) 20:52:25 435.000/436.395/437.385
O/OREOS (USA 219) 20 Oct 20:43:20 20:47:31 37° 104° (ESE) 20:51:43 437.305
SEEDS 20 Oct 20:45:18 20:49:11 37° 262° (W) 20:53:04 437.485
Oscar 11 20 Oct 20:56:54 21:00:52 37° 74° (ENE) 21:04:52 .
AAUSAT CUBESAT 2 20 Oct 21:07:58 21:11:56 48° 261° (W) 21:15:54 437.432
AO-73 20 Oct 21:33:59 21:38:23 49° 261° (W) 21:42:49 145.935
YUBILEINY 20 Oct 21:35:10 21:44:00 76° 84° (E) 21:52:49 435.215
STRAND 1 20 Oct 21:44:46 21:49:14 30° 290° (WNW) 21:53:41 437.568
Max Valier Satellite 20 Oct 21:47:58 21:50:29 18° 71° (ENE) 21:53:01 145.860
FO-29 20 Oct 21:49:27 21:56:23 49° 100° (E) 22:03:49 435.910
ZACube-1 20 Oct 21:57:10 22:00:49 23° 264° (W) 22:04:30 437.345
AO-85 20 Oct 22:01:20 22:03:41 14° 52° (NE) 22:06:06 145.980
BEESAT 2 20 Oct 22:03:59 22:06:32 16° 53° (NE) 22:09:03 435.950
BEESAT 3 20 Oct 22:18:40 22:22:36 89° 243° (WSW) 22:26:27 437.485
O/OREOS (USA 219) 20 Oct 22:24:09 22:27:01 16° 298° (WNW) 22:29:53 437.305
DELFI C3 20 Oct 22:31:58 22:35:50 74° 258° (WSW) 22:39:44 145.870
Oscar 11 20 Oct 22:34:50 22:37:05 14° 266° (W) 22:39:19 .
PRISM 20 Oct 22:45:38 22:46:58 11° 94° (E) 22:48:19 437.425
ESTCUBE 1 20 Oct 23:05:06 23:06:31 11° 67° (ENE) 23:07:54 437.505/2401.250
EO-88 20 Oct 23:09:38 23:13:07 42° 261° (W) 23:16:36 145.990 - 145.960
Max Valier Satellite 20 Oct 23:21:12 23:24:06 21° 264° (W) 23:27:01 145.860
UNISAT 6 20 Oct 23:22:14 23:26:49 84° 282° (WNW) 23:31:16 437.425
YUBILEINY 20 Oct 23:34:31 23:39:43 17° 279° (W) 23:44:57 435.215
FO-29 20 Oct 23:35:11 23:41:03 29° 292° (WNW) 23:47:18 435.910
TIGRISAT 20 Oct 23:36:58 23:41:29 61° 284° (WNW) 23:45:51 435.000
AO-85 20 Oct 23:39:41 23:44:22 63° 245° (WSW) 23:49:22 145.980
BEESAT 2 20 Oct 23:40:42 23:44:20 33° 247° (WSW) 23:47:53 435.950
RS-15 20 Oct 23:52:28 00:02:38 32° 104° (ESE) 00:12:51 29.354- 29.394
LO-87 20 Oct 23:57:23 00:00:56 76° 78° (ENE) 00:04:32 145.935 - 145.965
EO-79 21 Oct 00:15:19 00:16:25 11° 93° (E) 00:17:31 145.935-145.965
PRISM 21 Oct 00:18:28 00:22:21 41° 286° (WNW) 00:26:14 437.425
POLYITAN 1 21 Oct 00:19:29 00:21:21 13° 94° (E) 00:23:11 437.675
VELOX 1 21 Oct 00:27:34 00:30:07 15° 68° (ENE) 00:32:40 145.980
QB50P2 21 Oct 00:38:19 00:41:51 25° 97° (E) 00:45:21 145.880/145.840
ESTCUBE 1 21 Oct 00:38:25 00:42:48 52° 260° (W) 00:47:11 437.505/2401.250
NANOSAT C BR1 21 Oct 00:41:13 00:44:28 21° 96° (E) 00:47:41 145.865
DUCHIFAT 1 21 Oct 00:51:27 00:54:55 24° 97° (E) 00:58:20 145.980
AIST 2D 21 Oct 01:06:08 01:09:19 35° 285° (WNW) 01:12:30 435.315
SPROUT 21 Oct 01:12:26 01:16:42 83° 80° (E) 01:21:00 437.525
DX 1 21 Oct 01:31:26 01:34:28 19° 69° (ENE) 01:37:31 434.975-435.025
EO-79 21 Oct 01:48:16 01:52:20 44° 286° (WNW) 01:56:21 145.935-145.965
Oscar 19 21 Oct 01:49:49 01:52:27 14° 94° (E) 01:55:04 437.125/150
POLYITAN 1 21 Oct 01:53:16 01:57:14 39° 286° (WNW) 02:01:09 437.675
UKube-1 21 Oct 01:53:58 01:57:12 21° 70° (ENE) 02:00:27 .
NO-84 21 Oct 01:57:59 02:00:06 14° 120° (ESE) 02:02:14 435.350 FM
RS-15 21 Oct 02:02:10 02:14:16 64° 301° (WNW) 02:26:32 29.354- 29.394
VELOX 1 21 Oct 02:02:12 02:06:13 36° 261° (W) 02:10:15 145.980
50 SAT 21 Oct 02:04:33 02:07:44 58° 77° (ENE) 02:10:57 437.505
QB50P2 21 Oct 02:14:19 02:17:25 20° 290° (WNW) 02:20:31 145.880/145.840
NANOSAT C BR1 21 Oct 02:16:40 02:20:02 23° 289° (WNW) 02:23:22 145.865
Gurwin Techsat 1B 21 Oct 02:24:49 02:29:01 23° 96° (E) 02:33:12 435.225
DUCHIFAT 1 21 Oct 02:27:15 02:30:23 20° 290° (WNW) 02:33:29 145.980
BUGSAT 1 21 Oct 02:31:32 02:35:46 81° 281° (W) 02:39:53 437.445
DX 1 21 Oct 03:06:43 03:10:24 28° 262° (W) 03:14:08 434.975-435.025
ITUPSAT 1 21 Oct 03:15:19 03:18:56 22° 69° (ENE) 03:22:34 437.325
AO-7 21 Oct 03:15:37 03:17:33 11° 92° (E) 03:19:29 .
M-CUBED/EXP-1 PRIME 21 Oct 03:21:22 03:25:01 70° 288° (WNW) 03:28:57 437.505
Oscar 19 21 Oct 03:27:01 03:31:58 51° 286° (WNW) 03:36:53 437.125/150
UKube-1 21 Oct 03:29:32 03:33:02 24° 263° (W) 03:36:33 .
BEESAT 21 Oct 03:29:41 03:33:54 32° 71° (ENE) 03:38:07 436.000
NO-84 21 Oct 03:32:53 03:37:06 57° 313° (NW) 03:41:20 435.350 FM
ITAMSAT 1 21 Oct 04:02:35 04:05:49 16° 94° (E) 04:09:02 435.822/435.867
Gurwin Techsat 1B 21 Oct 04:04:12 04:08:55 33° 289° (WNW) 04:13:38 435.225
MOZHAYETS 4 21 Oct 04:15:36 04:20:12 68° 258° (WSW) 04:24:50
RS-15 21 Oct 04:22:05 04:29:48 18° 327° (NNW) 04:37:30 29.354- 29.394
CUBESAT XI-V 21 Oct 04:29:19 04:33:22 31° 72° (ENE) 04:37:24 437.345
ITUPSAT 1 21 Oct 04:52:18 04:56:31 31° 262° (W) 05:00:45 437.325
AO-7 21 Oct 05:02:50 05:11:11 80° 106° (ESE) 05:19:30 .
BEESAT 21 Oct 05:08:07 05:11:37 20° 264° (W) 05:15:10 436.000
JUGNU 21 Oct 05:36:38 05:40:09 16° 165° (SSE) 05:43:38 437.505
KKS-1 21 Oct 05:37:27 05:41:42 50° 75° (ENE) 05:46:00 437.445
ITAMSAT 1 21 Oct 05:40:26 05:45:26 46° 287° (WNW) 05:50:23 435.822/435.867
CUBESAT XI-V 21 Oct 06:07:23 06:10:41 19° 265° (W) 06:14:00 437.345
DOVE 4 21 Oct 06:07:33 06:12:24 43° 99° (E) 06:17:22 437.250
STARS 21 Oct 06:08:05 06:12:12 42° 73° (ENE) 06:16:21 437.465
XW-2F 21 Oct 06:32:58 06:33:51 11° 93° (E) 06:34:45 145.980 - 146.000
LilacSat-2 21 Oct 06:38:33 06:40:55 16° 95° (E) 06:43:16 437.200
NUDT-PHONESAT 21 Oct 06:43:09 06:43:27 10° 93° (E) 06:43:45 437.300
XW-2D 21 Oct 06:44:25 06:47:03 18° 96° (E) 06:49:40 145.860 - 145.880
SO-50 21 Oct 06:47:27 06:51:47 50° 114° (ESE) 06:56:06 436.795
XW-2B 21 Oct 06:57:25 07:00:35 26° 97° (E) 07:03:45 145.730 - 145.750
AO-7 21 Oct 06:57:37 07:02:59 19° 302° (WNW) 07:08:21 .
O/OREOS (USA 219) 21 Oct 06:58:24 07:02:30 31° 66° (ENE) 07:06:33 437.305
STRAND 1 21 Oct 07:17:17 07:21:05 21° 68° (ENE) 07:24:53 437.568
KKS-1 21 Oct 07:17:30 07:18:28 11° 267° (W) 07:19:26 437.445
XW-2C 21 Oct 07:20:17 07:23:58 58° 101° (E) 07:27:38 145.795 - 145.815
JUGNU 21 Oct 07:23:53 07:28:34 25° 175° (S) 07:33:13 437.505
PCSat 21 Oct 07:32:26 07:35:57 18° 105° (ESE) 07:39:29 145.827
DOVE 4 21 Oct 07:46:16 07:49:43 19° 291° (WNW) 07:53:13 437.250
STARS 21 Oct 07:46:44 07:48:40 13° 266° (W) 07:50:36 437.465
HO-68 21 Oct 07:51:45 07:58:11 34° 98° (E) 08:04:32 435.675
CUTE-I 21 Oct 07:55:06 08:00:30 82° 284° (WNW) 08:05:52 437.470
KAITUO 1B 21 Oct 08:01:09 08:04:43 49° 284° (WNW) 08:08:16 145.475/437.950
SRMSAT 21 Oct 08:02:08 08:04:51 13° 163° (SSE) 08:07:34 437.500
CUBEBUG 2 21 Oct 08:02:49 08:06:05 19° 94° (E) 08:09:17 437.445
XW-2F 21 Oct 08:04:41 08:08:02 33° 286° (WNW) 08:11:23 145.980 - 146.000
LilacSat-2 21 Oct 08:12:05 08:15:06 23° 287° (WNW) 08:18:06 437.200
NUDT-PHONESAT 21 Oct 08:14:04 08:17:23 33° 285° (WNW) 08:20:40 437.300
XW-2D 21 Oct 08:18:18 08:21:05 20° 288° (WNW) 08:23:52 145.860 - 145.880
CUTE 1.7 + AOD 2 21 Oct 08:28:09 08:32:21 75° 101° (E) 08:36:33 437.475
SO-50 21 Oct 08:30:03 08:32:29 14° 310° (NW) 08:34:55 436.795
XW-2B 21 Oct 08:32:25 08:34:29 14° 290° (WNW) 08:36:33 145.730 - 145.750
SEEDS 21 Oct 08:33:36 08:37:39 48° 100° (E) 08:41:41 437.485
YUBILEINY 21 Oct 08:37:47 08:42:20 15° 80° (E) 08:46:54 435.215
O/OREOS (USA 219) 21 Oct 08:38:29 08:41:36 18° 260° (W) 08:44:42 437.305
UWE-3 21 Oct 08:38:32 08:42:18 27° 96° (E) 08:45:58 435.000/436.395/437.385
AAUSAT CUBESAT 2 21 Oct 08:54:52 08:58:40 35° 98° (E) 09:02:26 437.432
STRAND 1 21 Oct 08:55:19 08:59:58 35° 262° (W) 09:04:40 437.568
RS-15 21 Oct 09:00:05 09:09:27 26° 41° (NE) 09:18:23 29.354- 29.394
ISS 21 Oct 09:02:33 09:05:00 20° 128° (SE) 09:07:27 437.550
JUGNU 21 Oct 09:12:21 09:17:02 25° 185° (S) 09:21:40 437.505
PCSat 21 Oct 09:13:43 09:18:54 46° 298° (WNW) 09:24:07 145.827
AO-73 21 Oct 09:27:07 09:31:15 45° 99° (E) 09:35:16 145.935
XW-2A 21 Oct 09:32:55 09:36:01 37° 285° (WNW) 09:39:05 145.665 - 145.685
CUBEBUG 2 21 Oct 09:38:42 09:42:40 29° 288° (WNW) 09:46:30 437.445
HO-68 21 Oct 09:39:18 09:45:46 37° 293° (WNW) 09:52:14 435.675
FO-29 21 Oct 09:42:07 09:47:17 84° 77° (ENE) 09:52:46 435.910
SRMSAT 21 Oct 09:48:51 09:53:24 23° 172° (S) 09:57:58 437.500
ZACube-1 21 Oct 09:49:39 09:53:58 78° 284° (WNW) 09:58:11 437.345
nSIGHT-1 21 Oct 10:02:43 10:05:50 52° 316° (NW) 10:08:57 .
SEEDS 21 Oct 10:12:13 10:12:50 10° 292° (WNW) 10:13:26 437.485
NO-84 21 Oct 10:13:00 10:13:54 11° 33° (NNE) 10:14:47 435.350 FM
DELFI C3 21 Oct 10:14:24 10:17:17 19° 96° (E) 10:20:10 145.870
UWE-3 21 Oct 10:15:18 10:18:31 20° 290° (WNW) 10:21:41 435.000/436.395/437.385
UNISAT 6 21 Oct 10:15:22 10:19:45 45° 74° (ENE) 10:24:14 437.425
Oscar 11 21 Oct 10:24:42 10:28:52 49° 285° (WNW) 10:33:00 .
YUBILEINY 21 Oct 10:29:17 10:37:58 81° 276° (W) 10:46:43 435.215
TIGRISAT 21 Oct 10:29:42 10:34:14 60° 76° (ENE) 10:38:52 435.000
AAUSAT CUBESAT 2 21 Oct 10:31:37 10:33:45 14° 291° (WNW) 10:35:53 437.432
ISS 21 Oct 10:38:33 10:41:20 25° 321° (NW) 10:44:07 437.550
EO-88 21 Oct 10:43:31 10:46:18 21° 96° (E) 10:49:03 145.990 - 145.960
Max Valier Satellite 21 Oct 10:55:04 10:58:36 45° 99° (E) 11:02:06 145.860
JUGNU 21 Oct 11:01:55 11:05:25 16° 194° (SSW) 11:08:55 437.505
PRISM 21 Oct 11:02:03 11:06:02 64° 76° (ENE) 11:10:02 437.425
AO-73 21 Oct 11:05:33 11:06:59 11° 293° (WNW) 11:08:24 145.935
RS-15 21 Oct 11:11:39 11:23:28 86° 245° (WSW) 11:34:36 29.354- 29.394
QB50P2 21 Oct 11:28:32 11:29:15 10° 67° (ENE) 11:29:59 145.880/145.840
AIST 2D 21 Oct 11:35:03 11:38:08 29° 74° (ENE) 11:41:13 435.315
SRMSAT 21 Oct 11:37:12 11:42:02 26° 182° (S) 11:46:52 437.500
NO-84 21 Oct 11:48:09 11:51:47 79° 233° (SW) 11:55:06 435.350 FM
DELFI C3 21 Oct 11:48:48 11:51:54 22° 288° (WNW) 11:55:00 145.870
UNISAT 6 21 Oct 11:54:21 11:56:37 13° 267° (W) 11:58:54 437.425
BEESAT 3 21 Oct 12:02:52 12:06:43 51° 115° (ESE) 12:10:38 437.485
EO-88 21 Oct 12:17:22 12:19:44 17° 289° (WNW) 12:22:06 145.990 - 145.960
YUBILEINY 21 Oct 12:33:06 12:36:01 12° 294° (WNW) 12:38:57 435.215
EO-79 21 Oct 12:34:51 12:39:03 65° 76° (ENE) 12:43:18 145.935-145.965
ESTCUBE 1 21 Oct 12:35:44 12:40:03 46° 100° (E) 12:44:21 437.505/2401.250
POLYITAN 1 21 Oct 12:39:51 12:44:07 76° 76° (ENE) 12:48:24 437.675
QB50P2 21 Oct 13:00:22 13:04:31 51° 260° (W) 13:08:42 145.880/145.840
NANOSAT C BR1 21 Oct 13:02:20 13:06:31 63° 258° (WSW) 13:10:45 145.865
LO-87 21 Oct 13:02:22 13:05:46 39° 285° (WNW) 13:09:08 145.935 - 145.965
Oscar 19 21 Oct 13:02:27 13:04:50 13° 65° (ENE) 13:07:12 437.125/150
SPROUT 21 Oct 13:03:49 13:07:02 20° 96° (E) 13:10:13 437.525
AIST 2D 21 Oct 13:10:39 13:11:20 10° 266° (W) 13:12:02 435.315
DUCHIFAT 1 21 Oct 13:12:28 13:16:36 54° 260° (W) 13:20:47 145.980
BUGSAT 1 21 Oct 13:15:58 13:19:42 33° 73° (ENE) 13:23:30 437.445
BEESAT 2 21 Oct 13:26:11 13:30:05 57° 299° (WNW) 13:34:04 435.950
SRMSAT 21 Oct 13:26:31 13:30:38 19° 192° (SSW) 13:34:46 437.500
RS-15 21 Oct 13:28:03 13:33:59 16° 262° (W) 13:39:49 29.354- 29.394
Gurwin Techsat 1B 21 Oct 13:41:09 13:45:16 23° 69° (ENE) 13:49:24 435.225
BEESAT 3 21 Oct 13:43:10 13:44:33 11° 309° (NW) 13:45:55 437.485
AO-85 21 Oct 13:49:56 13:53:42 48° 300° (WNW) 13:57:29 145.980
VELOX 1 21 Oct 13:56:34 14:00:58 60° 101° (E) 14:05:21 145.980
M-CUBED/EXP-1 PRIME 21 Oct 14:02:54 14:06:15 53° 72° (ENE) 14:09:29 437.505
AO-7 21 Oct 14:10:14 14:12:48 12° 53° (NE) 14:15:23 .
ESTCUBE 1 21 Oct 14:14:28 14:16:23 13° 293° (WNW) 14:18:19 437.505/2401.250
Oscar 19 21 Oct 14:38:29 14:43:34 59° 259° (WSW) 14:48:41 437.125/150
SPROUT 21 Oct 14:39:18 14:42:49 25° 289° (WNW) 14:46:18 437.525
BUGSAT 1 21 Oct 14:52:46 14:55:06 15° 266° (W) 14:57:26 437.445
DX 1 21 Oct 14:58:57 15:03:20 72° 101° (ESE) 15:07:42 434.975-435.025
50 SAT 21 Oct 15:00:10 15:03:26 68° 283° (WNW) 15:06:42 437.505
ITAMSAT 1 21 Oct 15:16:09 15:19:11 16° 66° (ENE) 15:22:14 435.822/435.867
Gurwin Techsat 1B 21 Oct 15:20:11 15:24:58 34° 262° (W) 15:29:46 435.225
UKube-1 21 Oct 15:20:24 15:24:44 79° 102° (ESE) 15:29:03 .
SO-50 21 Oct 15:24:55 15:27:08 13° 50° (NE) 15:29:22 436.795
BEESAT 21 Oct 15:36:50 15:38:29 12° 93° (E) 15:40:08 436.000
